#timestamp,LO_Frequency,Hit,StdDev 
1539720015.2,286046995.1,N
1539720035.0,286047000.4,N
1539720036.0,286047000.4,N
1539720055.8,286046996.7,N
1539720075.6,286046999.6,N
1539720095.5,286046996.5,N
1539720115.3,286046996.9,N
1539720135.1,286046998.0,N
1539720155.9,286046997.3,N
1539720175.7,286046996.0,N
1539720195.6,286046993.9,Y
1539720215.4,286046995.2,P
1539720235.2,286046999.0,N
1539720255.1,286046999.4,N
1539720256.0,286046999.4,N
1539720275.8,286047000.7,N
1539720295.6,286046999.5,N
1539720315.5,286046998.1,N
1539720335.3,286046999.8,N
1539720355.2,286046998.2,N
1539720375.9,286046999.7,N
1539720395.7,286047001.6,N
1539720415.6,286047000.2,N
1539720435.4,286047001.1,N
1539720455.2,286046998.6,N
1539720475.1,286046998.8,N
1539720476.0,286046998.8,N
1539720495.8,286047000.7,N
1539720515.7,286047000.6,N
1539720535.5,286046999.8,N
1539720555.3,286047000.0,N
1539720575.2,286046998.2,N
1539720595.0,286046999.9,N
1539720595.9,286046999.9,N
1539720615.7,286047000.5,N
1539720635.6,286046998.1,N
1539720655.4,286047000.2,N
1539720675.3,286047006.0,Y
1539720695.1,286047004.5,P
1539720715.8,286047005.1,N
1539720735.7,286047003.3,N
1539720755.5,286047003.3,N
1539720775.4,286047003.9,N
1539720795.2,286047001.8,N
1539720815.0,286047002.7,N
1539720815.9,286047002.7,N
1539720835.8,286047000.0,N
1539720855.6,286046998.8,N
1539720875.4,286047000.7,N
1539720895.3,286047000.7,N
1539720915.1,286047002.3,N
1539720935.8,286047000.2,N
1539720955.7,286047000.8,N
1539720975.5,286047002.2,N
1539720995.4,286047002.3,N
1539721015.2,286047004.0,N
1539721035.0,286047007.3,Y
1539721035.9,286047007.3,P
1539721055.8,286047007.2,N
1539721075.6,286047009.1,P
1539721095.5,286047008.2,Y
1539721115.3,286047000.3,P
1539721135.1,286047000.8,N
1539721155.9,286046997.1,N
1539721175.7,286046999.0,N
1539721195.5,286046996.6,N
1539721215.4,286046996.8,N
1539721235.2,286046994.9,N
1539721255.0,286046994.5,N
1539721256.0,286046994.5,N
1539721275.8,286046994.4,N
1539721295.6,286046996.1,N
1539721315.5,286046993.8,N
1539721335.3,286046996.0,N
1539721355.1,286046996.0,N
1539721375.9,286046998.0,N
1539721395.7,286046995.0,N
1539721415.5,286046996.3,N
1539721435.4,286046996.0,N
1539721455.2,286046993.4,N
1539721475.1,286046991.7,N
1539721476.0,286046991.7,N
1539721495.8,286046993.0,N
1539721515.6,286046992.4,N
1539721535.5,286046991.8,N
1539721555.3,286046990.2,Y
1539721575.1,286046995.1,P
1539721595.9,286046997.4,P
1539721615.7,286046996.5,P
1539721635.6,286046998.2,N
1539721655.4,286046997.1,N
1539721675.2,286046998.6,N
1539721695.1,286046996.6,N
1539721696.0,286046996.6,Y
1539721715.8,286047001.4,P
1539721735.6,286046999.8,N
1539721755.5,286046998.7,N
1539721775.3,286046998.2,N
1539721795.2,286046998.3,N
1539721815.9,286046999.4,N
1539721835.7,286046999.5,N
1539721855.6,286046996.8,N
1539721875.4,286046997.7,N
1539721895.2,286046998.6,N
1539721915.1,286046998.2,N
1539721916.0,286046998.2,N
1539721935.8,286047002.4,N
1539721955.7,286047002.1,N
1539721975.5,286047002.4,N
1539721995.3,286047002.0,N
1539722015.2,286046999.8,N
1539722035.0,286047004.2,N
1539722035.9,286047004.2,N
1539722055.7,286047002.6,N
1539722075.6,286047005.3,N
1539722095.4,286047005.5,N
1539722115.3,286047004.4,N
1539722135.1,286047004.3,N
1539722136.0,286047004.3,N
1539722155.8,286047002.3,N
1539722175.7,286047000.5,N
1539722195.5,286047000.3,N
1539722215.3,286047001.9,N
1539722235.2,286047006.0,N
1539722255.0,286047008.8,Y
1539722255.9,286047008.8,P
1539722275.8,286047005.3,N
1539722295.6,286047001.3,N
1539722315.4,286047001.3,N
1539722335.3,286047002.6,N
1539722355.1,286046999.8,N
1539722375.9,286047000.3,N
1539722395.7,286047002.6,N
1539722415.5,286047000.3,N
1539722435.4,286047004.3,N
1539722455.2,286047005.2,N
1539722475.0,286047006.7,N
1539722475.9,286047006.7,N
1539722495.8,286047004.7,N
1539722515.6,286047005.1,N
1539722535.4,286047004.9,N
1539722555.3,286047008.9,Y
1539722575.1,286047003.7,P
1539722595.9,286047007.1,P
1539722615.7,286047005.1,P
1539722635.5,286047003.9,N
1539722655.4,286047007.3,Y
1539722675.2,286047001.3,P
1539722695.1,286047002.5,N
1539722696.0,286047002.5,N
1539722715.8,286047002.8,N
1539722735.6,286047000.7,N
1539722755.5,286047000.5,N
1539722775.3,286047002.8,N
1539722795.1,286047001.3,N
1539722815.9,286047002.0,N
1539722835.7,286046998.1,N
1539722855.6,286047000.4,N
1539722875.4,286046996.6,N
1539722895.2,286046998.2,N
1539722915.1,286047002.5,N
1539722916.0,286047002.5,N
1539722935.8,286046999.1,N
1539722955.6,286046999.1,N
1539722975.5,286046995.0,N
1539722995.3,286046996.8,N
1539723015.2,286047000.0,N
1539723035.9,286047001.1,N
1539723055.7,286046998.8,N
1539723075.6,286046997.8,N
1539723095.4,286046997.8,N
1539723115.2,286047001.0,N
1539723135.1,286046999.0,N
1539723136.0,286046999.0,N
1539723155.8,286046996.8,N
1539723175.7,286046993.8,N
1539723195.5,286046992.2,Y
1539723215.3,286046995.2,P
1539723235.2,286046996.4,N
1539723255.0,286046993.8,P
1539723255.9,286046993.8,N
1539723275.7,286046994.0,N
1539723295.6,286046993.8,N
1539723315.4,286046995.3,N
1539723335.3,286046995.5,N
1539723355.1,286046996.2,N
1539723356.0,286046996.2,N
1539723375.8,286046996.3,N
1539723395.7,286046996.4,N
1539723415.5,286046994.1,Y
1539723435.4,286047000.5,P
1539723455.2,286046998.8,N
1539723475.0,286046999.4,N
1539723475.9,286046999.4,N
1539723495.8,286046997.8,N
1539723515.6,286046995.4,N
1539723535.4,286046996.3,N
1539723555.3,286046995.4,N
1539723575.1,286046995.1,N
1539723595.9,286046997.3,N
